Regional Weather Roundup
Issued by NWS

Home | Current Version | Previous Version | Text Only | Print | Product List | Glossary On
Versions: 1 2 3 4 5 6 7 8 9 10 11 12 13 14 15 16 17 18 19 20 21 22 23 24 25 26 27 28 29 30 31 32 33 34 35 36 37 38 39 40 41 42 43 44 45 46 47 48 49 50
638
ASUS43 KDTX 270810
RWRMI
MICHIGAN HOURLY REGIONAL WEATHER ROUNDUP
NATIONAL WEATHER SERVICE DETROIT/PONTIAC MI
400 AM EDT WED JUL 27 2016

NOTE: "FAIR" INDICATES FEW OR NO CLOUDS BELOW 12,000 FEET WITH NO
SIGNIFICANT WEATHER AND/OR OBSTRUCTION TO VISIBILITY.

MIZ047>049-052>055-059>063-066>070-074>076-081>083-270900-
SOUTHEAST LOWER MICHIGAN

CITY           SKY/WX    TMP DP  RH WIND       PRES   REMARKS
ADRIAN         CLEAR     63  63 100 CALM      30.02S
ALMA           CLEAR     63  62  97 CALM      29.99S
ANN ARBOR      CLEAR     59  59 100 CALM      30.00S
BAD AXE        CLEAR     60  57  91 S3        29.97F
CARO           PTCLDY    60  60  97 CALM      29.97S
DETROIT CITY   CLEAR     72  62  71 SW6       29.99S
DETROIT        PTCLDY    69  61  75 SW6       30.00S
FLINT          CLEAR     66  62  87 CALM      29.99S
GROSSE ILE     CLEAR     70  63  78 W3        29.99R
HOWELL         CLEAR     66  63  90 CALM      30.00S

CITY           SKY/WX    TMP DP  RH WIND       PRES   REMARKS
JACKSON        CLEAR     65  64  97 CALM      30.01S
LAMBERTVILLE   CLEAR     65  62  89 CALM      30.01R
LANSING        CLEAR     67  62  84 CALM      30.00S
LAPEER         FAIR      61  59  94 CALM      30.00R
MASON          CLEAR     64  62  93 CALM      30.00S
MONROE         CLEAR     66  63  90 CALM      30.00R
MT. CLEMENS    CLEAR     71  62  75 W3        29.97S
PONTIAC        CLEAR     69  63  81 CALM      29.99F
PORT HURON     CLEAR     61  61 100 CALM      29.99R
TRI CITIES     PTCLDY    68  64  87 S8        29.97F
MIDLAND        FAIR      63  62  97 CALM      29.96F
TROY           CLEAR     72  60  67 CALM      30.01S
SAGINAW HB     PTCLDY    64  63  94 SW3       29.97S
$$
MIZ043>046-050>051-056>058-064>065-071>073-077>080-270900-
SOUTHWEST LOWER MICHIGAN

CITY           SKY/WX    TMP DP  RH WIND       PRES   REMARKS
BATTLE CREEK   CLEAR     63  63 100 SW3       30.01S
BENTON HARBOR  CLEAR     62  59  90 E3        29.99F
BIG RAPIDS     CLEAR     63  63 100 CALM      29.99R
COLDWATER      CLEAR     64  64 100 CALM      30.01S
FREMONT        FAIR      63  63 100 CALM      29.99S
HOLLAND        CLEAR     62  59  90 CALM      30.01R
GRAND RAPIDS   CLEAR     66  62  87 SW3       30.01R
IONIA          FAIR      66  60  82 W5        30.00R
KALAMAZOO      CLEAR     65  62  90 CALM      30.01S
LUDINGTON      CLEAR     73  66  79 SW6       29.96S
MARSHALL       CLEAR     63  63  97 CALM      30.00S
MOUNT PLEASANT CLEAR     65  63  91 CALM      29.98R
MUSKEGON         N/A     68  66  93 S3        29.99S
SOUTH HAVEN    CLEAR     61  60  99 CALM      30.00S
$$
MIZ016>042-270900-
NORTHERN LOWER MICHIGAN

CITY           SKY/WX    TMP DP  RH WIND       PRES   REMARKS
ALPENA         PTCLDY    69  62  78 SW3       29.93F
BEAVER ISLAND  PTCLDY    70  67  92 CALM      29.94R
BELLAIRE       CLEAR     68  60  77 CALM      29.94S
CADILLAC       MOCLDY    67  59  74 SW3       29.99S
CHARLEVOIX     PTCLDY    74  66  75 W12       29.96R
FRANKFORT      PTCLDY    74  66  76 SW6       29.95S
GAYLORD        CLEAR     70  58  65 W9        29.96S
GRAYLING       MOCLDY    69  58  67 W3        29.98S
HARBOR SPRINGS CLOUDY    72  65  81 W3        29.93S
HOUGHTON LAKE  CLEAR     70  60  70 W6        29.99R
MANISTEE       MOCLDY    63  62  97 E5        29.96S
OSCODA         PTCLDY    67  60  78 SW5       29.93S
PELLSTON       CLOUDY    71  64  78 W6        29.93R
ROGERS CITY    CLOUDY    68  65  89 SW3       29.93S
TRAVERSE CITY  PTCLDY    75  61  61 SW8       29.93S
$$
MIZ007>008-015-270900-
EASTERN UPPER MICHIGAN

CITY           SKY/WX    TMP DP  RH WIND       PRES   REMARKS
KINROSS        CLEAR     65  64  97 W5        29.92S
MACKINAC ISLAN PTCLDY    69  69 100 W7        29.91F
NEWBERRY       CLEAR     64  63  94 W5        29.94R
S. S. MARIE    MOCLDY    66  64  93 NW3       29.91S
$$
MIZ004>006-011>014-085-270900-
CENTRAL UPPER MICHIGAN

CITY           SKY/WX    TMP DP  RH WIND       PRES   REMARKS
MANISTIQUE     CLEAR     66  65  97 NW6       29.93S
ESCANABA       CLOUDY    68  64  88 NW5       29.93R
MENOMINEE      PTCLDY   N/A N/A N/A N7        29.97R
SAWYER-GWINN   MOCLDY    67  64  93 CALM      29.98R
$$
MIZ001>003-009>011-084-270900-
WESTERN UPPER MICHIGAN

CITY           SKY/WX    TMP DP  RH WIND       PRES   REMARKS
IRON MOUNTAIN  CLOUDY    68  61  78 NW12      29.99R
HOUGHTON       PTCLDY    64  60  87 N5        29.96R
IRONWOOD       CLOUDY    70  70 100 SE3       29.95S
$$

ABBREVIATIONS USED IN REMARKS
   TC - TEMPERATURE IN CELSIUS
  WCI - WIND CHILL INDEX
   HX - HEAT INDEX
  VSB - VISIBILITY





USA.gov is the U.S. government's official web portal to all federal, state and local government web resources and services.